Location: Bermeries
(50.2863°N, 3.7551°E)
Time: 21:16:02
(UTC+00:00)

MOZ.5/SAFIR/RUBIN 5/SL-8 - Pass Details

Date: 23 May 2024
Orbit: 671 x 700 km, 98.3° (Epoch: 14 June)

Event Time Altitude Azimuth Distance (km) Brightness Sun altitude
Exits shadow 01:18:26 23° 175° (S) 1,454 4.9 -15.9°
Maximum altitude 01:21:21 73° 257° (WSW) 733 3.8 -15.7°
Drops below altitude 10° 01:26:05 10° 342° (NNW) 2,159 7.0 -15.4°
Sets 01:28:21 0° 345° (NNW) 3,076 7.9 -15.3°
